Location: Unspecified
(0.0000°N, 0.0000°E)
Time: 16:34:15
(UTC+00:00)

ISS - Pass Details

Date: 05 September 2024
Orbit: 414 x 424 km, 51.6° (Epoch: 15 September)

Event Time Altitude Azimuth Distance (km) Brightness Sun altitude
Rises 19:05:22 0° 209° (SSW) 2,344 0.3 -16.6°
Reaches altitude 10° 19:07:29 10° 205° (SSW) 1,481 -0.8 -17.1°
Maximum altitude 19:10:45 56° 126° (SE) 494 -3.8 -18.0°
Enters shadow 19:10:51 56° 117° (ESE) 495 -3.8 -18.0°
